Pittston, PA

12:16 AM EST on December 08, 2016 (GMT -0500)
Wilkes-Barre-Scranton International

Weather History for KAVP - October, 2013

Change the Weather History Date:

Thursday, October 24, 2013

  Actual Average Record
Temperature  
Mean Temperature 41 °F 48 °F  
Max Temperature 48 °F 58 °F 77 °F (2001)
Min Temperature 33 °F 39 °F 21 °F (1969)
Degree Days  
Heating Degree Days 24 17  
Month to date heating degree days 180 315  
Since 1 July heating degree days 342 477  
Cooling Degree Days 0 0  
Month to date cooling degree days 24 0  
Year to date cooling degree days 795 576  
Moisture  
Dew Point 29 °F    
Average Humidity 69    
Maximum Humidity 96    
Minimum Humidity 41    
Precipitation  
Precipitation 0.00 in 0.10 in 1.23 in (1917)
Month to date precipitation 1.29 2.65  
Year to date precipitation 21.21 31.75  
Sea Level Pressure  
Sea Level Pressure 29.91 in    
Wind  
Wind Speed 8 mph (SW)    
Max Wind Speed 20 mph    
Max Gust Speed 26 mph    
Visibility 10 miles    
Events      
T = Trace of Precipitation, MM = Missing Value Source: NWS Daily Summary

Daily Weather History Graph

Daily Weather History Graph

Search for Another Location

Airport or City:

Trip Planner

Search our weather history database for the weather conditions in past years. The results will help you decide how hot, cold, wet, or windy it might be!

Date:

Astronomy

Oct. 24, 2013 Rise Set
Actual Time 7:25 AM EDT 6:08 PM EDT
Civil Twilight 6:56 AM EDT 6:36 PM EDT
Nautical Twilight 6:24 AM EDT 7:08 PM EDT
Astronomical Twilight 5:52 AM EDT 7:40 PM EDT
Moon 10:29 PM EDT (10/24) 12:25 PM EDT (10/24)
Length of Visible Light 11h 39m
Length of Day
10h 43m
Waning Gibbous, 71% of the Moon is Illuminated
Oct 24
Waning Gibbous
Oct 26
Last Quarter
Nov 3
New
Nov 10
First Quarter
Nov 17
Full

Hourly Weather History & Observations

Time (EDT) Temp. Windchill Dew Point Humidity Pressure Visibility Wind Dir Wind Speed Gust Speed Precip Events Conditions
12:54 AM 35.1 °F - 33.1 °F 92% 29.81 in 10.0 mi Calm Calm - N/A   Unknown
1:54 AM 36.0 °F 32.1 °F 32.0 °F 86% 29.82 in 10.0 mi SW 4.6 mph - N/A   Mostly Cloudy
2:54 AM 35.1 °F 32.2 °F 32.0 °F 89% 29.82 in 10.0 mi SSW 3.5 mph - N/A   Partly Cloudy
3:54 AM 35.1 °F 31.0 °F 30.9 °F 85% 29.84 in 10.0 mi SSW 4.6 mph - N/A   Clear
4:54 AM 34.0 °F 29.8 °F 32.0 °F 92% 29.86 in 10.0 mi SSW 4.6 mph - N/A   Clear
5:54 AM 33.1 °F - 30.9 °F 92% 29.88 in 10.0 mi Calm Calm - N/A   Clear
6:54 AM 33.1 °F 28.7 °F 30.9 °F 92% 29.89 in 10.0 mi SSW 4.6 mph - N/A   Clear
7:54 AM 34.0 °F 29.8 °F 32.0 °F 92% 29.91 in 10.0 mi SSW 4.6 mph - N/A   Mostly Cloudy
8:02 AM 35.6 °F 30.7 °F 32.0 °F 87% 29.89 in 10.0 mi SSW 5.8 mph - N/A   Mostly Cloudy
8:19 AM 35.6 °F 29.2 °F 30.2 °F 81% 29.90 in 10.0 mi SW 8.1 mph - N/A   Mostly Cloudy
8:37 AM 35.6 °F 29.2 °F 32.0 °F 87% 29.91 in 10.0 mi SW 8.1 mph - N/A   Mostly Cloudy
8:54 AM 37.0 °F 32.4 °F 32.0 °F 82% 29.92 in 10.0 mi Variable 5.8 mph - N/A   Partly Cloudy
9:37 AM 39.2 °F 31.2 °F 32.0 °F 75% 29.91 in 10.0 mi WSW 13.8 mph 18.4 mph N/A   Mostly Cloudy
9:54 AM 39.0 °F 35.7 °F 32.0 °F 76% 29.93 in 10.0 mi Variable 4.6 mph - N/A   Mostly Cloudy
10:54 AM 41.0 °F 33.9 °F 32.0 °F 70% 29.93 in 10.0 mi West 12.7 mph 19.6 mph N/A   Overcast
11:43 AM 42.8 °F 35.4 °F 30.2 °F 61% 29.90 in 10.0 mi WSW 15.0 mph 21.9 mph N/A   Overcast
11:54 AM 44.1 °F 37.1 °F 30.0 °F 58% 29.91 in 10.0 mi WSW 15.0 mph 20.7 mph N/A   Mostly Cloudy
12:54 PM 44.1 °F 39.0 °F 28.9 °F 55% 29.91 in 10.0 mi WSW 9.2 mph 17.3 mph N/A   Mostly Cloudy
1:54 PM 45.0 °F 39.7 °F 27.0 °F 49% 29.89 in 10.0 mi WSW 10.4 mph - N/A   Overcast
2:54 PM 46.0 °F 39.9 °F 26.1 °F 46% 29.89 in 10.0 mi West 13.8 mph 23.0 mph N/A   Overcast
3:54 PM 45.0 °F 37.4 °F 26.1 °F 48% 29.91 in 10.0 mi WSW 18.4 mph 21.9 mph N/A   Overcast
4:54 PM 46.9 °F - 24.1 °F 41% 29.91 in 10.0 mi WSW 12.7 mph - N/A   Overcast
5:54 PM 45.0 °F 38.5 °F 23.0 °F 42% 29.94 in 10.0 mi WSW 13.8 mph 21.9 mph N/A   Overcast
6:54 PM 42.1 °F 36.6 °F 24.1 °F 49% 29.96 in 10.0 mi West 9.2 mph - N/A   Clear
7:54 PM 39.9 °F 36.7 °F 25.0 °F 55% 29.99 in 10.0 mi SW 4.6 mph - N/A   Clear
8:54 PM 37.9 °F 33.5 °F 25.0 °F 60% 30.00 in 10.0 mi SW 5.8 mph - N/A   Unknown
9:54 PM 37.0 °F 33.3 °F 26.1 °F 65% 30.01 in 10.0 mi SW 4.6 mph - N/A   Clear
10:54 PM 39.0 °F 33.4 °F 28.0 °F 65% 30.02 in 10.0 mi SW 8.1 mph - N/A   Mostly Cloudy
11:54 PM 37.9 °F 31.5 °F 28.0 °F 68% 30.02 in 10.0 mi SW 9.2 mph - N/A   Overcast